Showing default

COSMOS 2328, 23790

Orbit data source: Space-Track

COSMOS 2328, 23790 is a payload satellite owned by VKS (CIS) in LEO that was launched on Mon, 19 Feb 1996 UTC via a TSIKLON-3 launch vehicle from the Plesetsk Missile And Space Complex (PKMTR). Payload-class satellites include a variety of spacecraft equipped with specific instruments for various scientific and technological missions. These include communications satellites like Starlink; space stations such as the ISS; scientific satellites like the Hubble; Earth observation satellites from companies like Planet Labs, Umbra, and HawkEye 360; GPS; miniature CubeSats for education and research; and military/defense satellites.

Loading next visibility...
Identifier
23790, 1996-009D
Orbit
LEO
Country
Flag of CISCIS
Related business
Manufacturer
NPO PM
Mission
Non-operational Defense Communications
Bus & Motor
STRELA-3, Unknown motor
Mass
225 kg wet, 225 kg dry
Launch date (UTC)
1996-02-19 (31 years ago)
Launch vehicle
TSIKLON-3
Launch site
Plesetsk Missile And Space Complex (PKMTR)
Object type
Payload
Rocket body
Debris
Shape & HBR
Cyl + 1 Ant, 3.5 m
Radar Cross Section
1.583 m², Large (>1 m²)

Expand to show TLE details & history
Last TLE update: 14 hours ago

TLE from 14 hours ago
0 COSMOS 2328
1 23790U 96009D   26265.97429016  .00000039  00000-0  16058-3 0  9999
2 23790  82.5728 257.1311 0007393 186.8151 173.2841 12.62605457409813
Epoch: 2026-09-22T23:22Z
TLE epoch observation values (Epoch: 2026-09-22T23:22:58.669Z)
Latitude
-0.00003°
Longitude
-95.44543°
Altitude
1,420.66 km
Speed
7.148 km/s
True Right ascension
17h 08m 31s
True Declination
0° 00' 00"
Sunlit
Object was in daylight at epoch
Visualization orbit readout
Latitude
Unknown
Longitude
Unknown
Altitude
Unknown
Speed
Unknown
Apparent Right ascension
Unknown
Apparent Declination
Unknown
Sunlit
N/A
Visualization observer readout
Local Sidereal Time
06:08:42
Azimuth
Unknown
Elevation
Unknown
Doppler factor
Unknown
Orbital elements
Apogee altitude
1,415.287 km
Perigee altitude
1,403.772 km
Semi-major axis
7,787.666 km
Eccentricity
0.00074
Inclination
82.5728°
RAAN
257.1311°
Arg. of periapsis
186.8151°
True anomaly
173.294°
Mean anomaly
173.2841°
Eccentric anomaly
173.28905°
Mean motion
3.15815 °/min
Orbital period
113.99 mins
BSTAR
0.00016058
Loading maneuver chart data...
Computing Atmospheric mass density...
Loading historical data...
Loading historical data...
Loading historical data...
Loading historical data...
Loading historical data...
Loading historical data...
Loading historical data...

Documentation

Showing up to 5 results
|